Flag for Mexico Weather past 2 weeks in Monterrey, Nuevo León, Mexico

Now
46 °F

Clear.


Feels Like: 46 °F
Forecast: 47 / 73 °F
Wind: No wind

Location: Monterrey / Gen Maria


UV Index: 7 (High)

Visibility: 15 mi


Pressure: 30.05 "Hg

Humidity: 76%

Dew point: 39 °F

Location of MonterreyLocation

Historic Weather in Monterrey

°F

Monterrey temperature yesterday

Maximum temperature yesterday: 70 °F (at 4:47 PM)
Minimum temperature yesterday: 52 °F (at 7:45 AM)
Average temperature yesterday: 60 °F

Past Weeks' High & Low Weather Summary

 TemperatureHumidityPressure
High102 °F (Apr 3, 1:42 PM)100% (Apr 1, 4:52 AM)30.43 "Hg (Apr 1, 4:52 AM)
Low46 °F (Apr 16, 3:45 AM)7% (Apr 3, 1:42 PM)29.62 "Hg (Apr 3, 5:47 PM)
Average72 °F55%29.91 "Hg
* Reported Apr 1 3:45 AM — Apr 16 4:43 AM, Monterrey, Weather by CustomWeather, © 2014

Note: Actual official high and low records may vary slightly from our data, if they occured in-between our weather recording intervals... More about our weather records

Advertising

Historic Weather Conditions — Data for Previous 24 hours

 ConditionsComfort  
Time TempWeatherWind HumidityBarometerVisibility
4:43 AM
Apr 16
46 °FClear.No wind76%30.05 "Hg15 mi
3:45 AM46 °FClear.6 mph76%30.12 "Hg15 mi
2:40 AM48 °FClear.9 mph71%30.08 "Hg15 mi
1:50 AM50 °FClear.12 mph58%30.08 "Hg15 mi
12:48 AM52 °FClear.9 mph44%30.14 "Hg15 mi
11:42 PM
Apr 15
54 °FClear.9 mph38%30.12 "Hg15 mi
10:43 PM52 °FClear.8 mph44%30.13 "Hg15 mi
7:50 PM64 °FSunny.7 mph24%30.11 "Hg15 mi
5:50 PM70 °FScattered clouds.9 mph23%30.12 "Hg15 mi
4:47 PM70 °FScattered clouds.7 mph21%30.14 "Hg12 mi
2:47 PM68 °FPassing clouds.7 mph23%30.21 "Hg15 mi
1:41 PM64 °FSunny.7 mph26%30.26 "Hg15 mi
11:40 AM63 °FScattered clouds.6 mph25%30.34 "Hg15 mi
9:45 AM59 °FScattered clouds.3 mph29%30.36 "Hg15 mi
8:45 AM55 °FBroken clouds.9 mph36%30.35 "Hg15 mi
7:45 AM52 °FPartly cloudy.10 mph47%30.34 "Hg15 mi
Weather by CustomWeather, © 2014

See weather overview